This is the latest recevied weather packets stored in our database for station/object KA7KDX-4. If no packets are shown the sender has not sent any weather packets the latest 10 day(s).
| Time | Temp. | Humidity | Pressure | Rain* | Wind** | Luminosity | Snow |
|---|---|---|---|---|---|---|---|
| 1777402805 | 11.11° C | 51% | 1017.7 hPa | 0 mm | - | - | - |
| 1777402505 | 11.11° C | 51% | 1017.9 hPa | 0 mm | - | - | - |
| 1777402205 | 11.11° C | 52% | 1018 hPa | 0 mm | - | - | - |
| 1777401905 | 10.56° C | 53% | 1018.3 hPa | 0 mm | - | - | - |
| 1777401606 | 10.56° C | 53% | 1018.2 hPa | 0 mm | - | - | - |
| 1777401306 | 11.11° C | 52% | 1018 hPa | 0.25 mm | - | - | - |
| 1777401006 | 11.11° C | 52% | 1018 hPa | 0.25 mm | - | - | - |
| 1777400706 | 11.11° C | 51% | 1018 hPa | 0.25 mm | - | - | - |
| 1777400405 | 10.56° C | 52% | 1018.4 hPa | 0.25 mm | - | - | - |
| 1777400105 | 10.56° C | 53% | 1018.4 hPa | 0 mm | - | - | - |
| 1777399805 | 10.56° C | 54% | 1018.4 hPa | 0 mm | - | - | - |
| 1777399505 | 10.56° C | 52% | 1018.3 hPa | 0 mm | - | - | - |
| 1777399205 | 10.56° C | 52% | 1018.4 hPa | 0 mm | - | - | - |
| 1777398905 | 10.56° C | 49% | 1018.2 hPa | 0 mm | - | - | - |
| 1777398606 | 11.11° C | 51% | 1018.1 hPa | 0 mm | - | - | - |
| 1777398306 | 10.56° C | 50% | 1018.2 hPa | 0 mm | - | - | - |
| 1777398006 | 10.56° C | 51% | 1018.4 hPa | 0 mm | - | - | - |
| 1777397706 | 10.56° C | 52% | 1018.3 hPa | 0.25 mm | - | - | - |
| 1777397405 | 10.56° C | 52% | 1018.4 hPa | 0.25 mm | - | - | - |
| 1777397105 | 10° C | 52% | 1018.4 hPa | 0.25 mm | - | - | - |
| 1777396805 | 10° C | 50% | 1018.5 hPa | 0 mm | - | - | - |
| 1777396505 | 10° C | 51% | 1018.5 hPa | 0.25 mm | - | - | - |
| 1777396205 | 10° C | 51% | 1018.5 hPa | 0.25 mm | - | - | - |
| 1777395905 | 10° C | 52% | 1018.5 hPa | 0.25 mm | - | - | - |
| 1777395606 | 10° C | 51% | 1018.4 hPa | 0 mm | - | - | - |
* Rain latest hour (hover to see other rain measurements)
** Current wind speed in m/s (hover to see current wind gust speed)